Back to catalog

STARLINK-38276

AliveCommunicationsSSO
NORAD 100390·PAYLOAD·🇺🇸 United States

Launched Aug 19, 2026 from Vandenberg Space Force Base

Loading…

Next Passes (next 24 hours)

TLE

FreshSource: Space-Track

Epoch: Sep 13, 2026, 14:09 UTC

1 A0390U 26190V   26256.58984777 -.00360649  00000-0 -27408-2 0  9999
2 A0390  97.2843 110.5429 0001167  91.8771 268.2627 15.73243400  5284

Track STARLINK-38276 in real time with AllMySat

Download on the App Store